Kalaheo, HI

3:44 AM HST on February 06, 2016 (GMT -1000)
Waimea, Hi 96796 | | Change Station
CLOSE
Current Station
Personal Weather Station
Location: Waimea, HI
Elevation: 60 ft
Nearby Weather Stations
Active Advisory: Wind Advisory Active Notice: Record Report

Elev 60 ft 21.95 °N, 159.67 °W | Updated 49 seconds ago

Clear
Clear
68.3 °F
Feels Like 68.3 °F
N
0.0
Wind Variable Wind from East
Gusts 9.0 mph

Today
High -- | Low -- °F
--% Chance of Precip.
Yesterday
High -- | Low -- °F
Precip. -- in
Pressure 29.98 in
Visibility 10.0 miles
Clouds Clear
Dew Point 58 °F
Humidity 71%
Rainfall 0.00 in
Snow Depth Not available.
7:14 AM 6:30 PM
Waning Crescent, 5% visible
METAR PHLI 061253Z 30005KT 10SM CLR 19/17 A2998 RMK AO2 SLP151 T01890167
Pressure 29.98 in
Visibility 10.0 miles
Clouds Clear
Dew Point 58 °F
Humidity 71%
Rainfall 0.00 in
Snow Depth Not available.
7:14 AM 6:30 PM
Waning Crescent, 5% visible
METAR PHLI 061253Z 30005KT 10SM CLR 19/17 A2998 RMK AO2 SLP151 T01890167

10-Day Weather Forecast

Almanac

Astronomy

Feb. 06, 2016 Rise Set
Actual Time
Civil Twilight
Nautical Twilight
Astronomical Twilight
Moon
Length of Visible Light
Length of Day
Tomorrow will be .
, % of the Moon is Illuminated

Today's Extremes

State Highs State Lows

Community

WunderPhotos

Upload Photos

1,890,971 photos uploaded!

WunderBlog® & News

Nearby

Air Quality

  Air Quality AQ Index Pollutant
Not available.

Snow Depth

Station Depth Elevation

Earthquake Activity

City Distance Mag. Time & Date
Minimum magnitude displayed is 2.5.

Coastal Water Temperatures

Place Temperature

Stations

Nearby Weather Stations

Station Location Temp. Windchill Dew Point Humidity Wind Precip. Elev Updated Type
                   

Watches & Warnings

Wind Advisory
Issued: 3:32 AM HST Feb. 6, 2016 – National Weather Service

... Wind Advisory in effect from 2 PM this afternoon to 6 PM HST
Sunday...

The National Weather Service in Honolulu has issued a Wind
Advisory... which is in effect from 2 PM this afternoon to 6 PM
HST Sunday.

* Timing... late this afternoon through Sunday.

* Winds... north up to 30 mph with gusts up to 55 mph. Winds will
be strongest downwind of higher terrain and in north facing
valleys.

* Impacts... motorists... especially those in high profile
vehicles... are urged to drive with extreme caution. Lightweight
outdoor objects may be blown around... and should be secured
before winds increase.

Precautionary/preparedness actions...

A Wind Advisory means that sustained winds of at least 30 mph...
or gusts of at least 50 mph... are expected. Motorists should use
extra caution.